| time (UTC) | temp F | wind direction | speed knots | gust knots | rain 1hr in | rain 24hr in | rain mn in | humidity % | barometer mb |
| 20260504231931 | 66 | 180 | 0.9 | 1.7 | 0.00 | 0.00 | 0.00 | 57 | 1010.3 |
| 20260504231427 | 66 | 181 | 2.6 | 5.2 | 0.00 | 0.00 | 0.00 | 57 | 1010.1 |
| 20260504230924 | 66 | 240 | 3.5 | 4.3 | 0.00 | 0.00 | 0.00 | 57 | 1010.1 |
| 20260504230421 | 65 | 186 | 0.9 | 6.1 | 0.00 | 0.00 | 0.00 | 57 | 1010.3 |
| 20260504225920 | 66 | 210 | 4.3 | 6.1 | 0.00 | 0.00 | 0.00 | 56 | 1010.0 |
| 20260504225416 | 66 | 220 | 3.5 | 7.0 | 0.00 | 0.00 | 0.00 | 56 | 1010.4 |
| 20260504224914 | 66 | 181 | 0.9 | 6.1 | 0.00 | 0.00 | 0.00 | 55 | 1010.2 |
| 20260504224410 | 66 | 183 | 0.0 | 4.3 | 0.00 | 0.00 | 0.00 | 55 | 1010.2 |
| 20260504223907 | 66 | 188 | 0.0 | 2.6 | 0.00 | 0.00 | 0.00 | 56 | 1010.0 |
| 20260504223402 | 66 | 195 | 0.9 | 5.2 | 0.00 | 0.00 | 0.00 | 55 | 1010.0 |
| 20260504222859 | 66 | 262 | 6.1 | 7.8 | 0.00 | 0.00 | 0.00 | 55 | 1010.0 |
| 20260504222356 | 66 | 204 | 2.6 | 2.6 | 0.00 | 0.00 | 0.00 | 55 | 1010.3 |
| 20260504221854 | 67 | 255 | 5.2 | 7.0 | 0.00 | 0.00 | 0.00 | 54 | 1010.3 |
| 20260504221351 | 67 | 166 | 0.9 | 6.1 | 0.00 | 0.00 | 0.00 | 54 | 1010.2 |
| 20260504220848 | 68 | 248 | 4.3 | 5.2 | 0.00 | 0.00 | 0.00 | 54 | 1010.4 |
| 20260504220344 | 68 | 242 | 4.3 | 6.1 | 0.00 | 0.00 | 0.00 | 54 | 1010.2 |
| 20260504215842 | 68 | 188 | 0.9 | 1.7 | 0.00 | 0.00 | 0.00 | 55 | 1010.2 |
| 20260504215338 | 67 | 188 | 0.9 | 5.2 | 0.00 | 0.00 | 0.00 | 55 | 1010.0 |
| 20260504214834 | 66 | 187 | 0.0 | 0.9 | 0.00 | 0.00 | 0.00 | 59 | 1010.3 |
| 20260504214331 | 66 | 180 | 0.0 | 0.9 | 0.00 | 0.00 | 0.00 | 57 | 1010.3 |
| 20260504213828 | 66 | 177 | 1.7 | 4.3 | 0.00 | 0.00 | 0.00 | 56 | 1010.3 |
| 20260504213324 | 67 | 178 | 0.9 | 1.7 | 0.00 | 0.00 | 0.00 | 55 | 1010.3 |
| 20260504212821 | 66 | 192 | 0.9 | 4.3 | 0.00 | 0.00 | 0.00 | 57 | 1010.3 |
| 20260504212317 | 66 | 185 | 2.6 | 5.2 | 0.00 | 0.00 | 0.00 | 56 | 1010.2 |
| 20260504211815 | 66 | 242 | 3.5 | 4.3 | 0.00 | 0.00 | 0.00 | 56 | 1010.1 |
| 20260504211311 | 66 | 214 | 1.7 | 4.3 | 0.00 | 0.00 | 0.00 | 56 | 1010.3 |
| 20260504210809 | 66 | 234 | 2.6 | 5.2 | 0.00 | 0.00 | 0.00 | 56 | 1010.2 |
| 20260504210306 | 66 | 221 | 1.7 | 4.3 | 0.00 | 0.00 | 0.00 | 55 | 1010.2 |
| 20260504205803 | 66 | 203 | 1.7 | 5.2 | 0.00 | 0.00 | 0.00 | 55 | 1010.4 |
| 20260504205300 | 66 | 186 | 1.7 | 5.2 | 0.00 | 0.00 | 0.00 | 55 | 1010.3 |
| 20260504204758 | 67 | 176 | 1.7 | 1.7 | 0.00 | 0.00 | 0.00 | 54 | 1010.1 |
| 20260504204256 | 67 | 191 | 1.7 | 4.3 | 0.00 | 0.00 | 0.00 | 53 | 1010.3 |
| 20260504203756 | 67 | 189 | 1.7 | 4.3 | 0.00 | 0.00 | 0.00 | 54 | 1010.2 |
| 20260504203252 | 67 | 177 | 2.6 | 6.1 | 0.00 | 0.00 | 0.00 | 53 | 1010.3 |
| 20260504202747 | 68 | 214 | 2.6 | 7.0 | 0.00 | 0.00 | 0.00 | 52 | 1010.4 |
| 20260504202245 | 68 | 175 | 4.3 | 6.1 | 0.00 | 0.00 | 0.00 | 51 | 1010.1 |
| 20260504201741 | 69 | 175 | 0.9 | 1.7 | 0.00 | 0.00 | 0.00 | 50 | 1010.4 |
| 20260504201238 | 68 | 178 | 0.0 | 1.7 | 0.00 | 0.00 | 0.00 | 50 | 1010.2 |
| 20260504200737 | 69 | 211 | 5.2 | 7.0 | 0.00 | 0.00 | 0.00 | 49 | 1010.2 |
| 20260504200232 | 69 | 187 | 0.9 | 4.3 | 0.00 | 0.00 | 0.00 | 48 | 1010.3 |
| 20260504195729 | 71 | 272 | 6.1 | 7.8 | 0.00 | 0.00 | 0.00 | 47 | 1010.0 |
| 20260504195225 | 70 | 203 | 0.9 | 1.7 | 0.00 | 0.00 | 0.00 | 48 | 1010.0 |
| 20260504194722 | 70 | 190 | 0.9 | 1.7 | 0.00 | 0.00 | 0.00 | 49 | 1010.0 |
| 20260504194218 | 69 | 192 | 2.6 | 7.0 | 0.00 | 0.00 | 0.00 | 48 | 1010.1 |
| 20260504193715 | 70 | 213 | 2.6 | 6.1 | 0.00 | 0.00 | 0.00 | 47 | 1010.1 |
| 20260504193212 | 69 | 220 | 1.7 | 6.1 | 0.00 | 0.00 | 0.00 | 48 | 1010.1 |
| 20260504192710 | 70 | 263 | 4.3 | 5.2 | 0.00 | 0.00 | 0.00 | 48 | 1010.1 |
| 20260504192208 | 70 | 181 | 2.6 | 5.2 | 0.00 | 0.00 | 0.00 | 47 | 1010.3 |
| 20260504191707 | 70 | 211 | 2.6 | 11.3 | 0.00 | 0.00 | 0.00 | 48 | 1010.4 |
| 20260504191203 | 69 | 186 | 0.9 | 6.1 | 0.00 | 0.00 | 0.00 | 50 | 1010.4 |
| 20260504190658 | 70 | 224 | 2.6 | 8.7 | 0.00 | 0.00 | 0.00 | 48 | 1010.4 |
| 20260504190155 | 71 | 171 | 6.1 | 8.7 | 0.00 | 0.00 | 0.00 | 47 | 1010.6 |
| 20260504185651 | 69 | 190 | 0.9 | 5.2 | 0.00 | 0.00 | 0.00 | 49 | 1010.3 |
| 20260504185148 | 68 | 241 | 5.2 | 7.8 | 0.00 | 0.00 | 0.00 | 49 | 1010.6 |
| 20260504184644 | 70 | 227 | 6.1 | 8.7 | 0.00 | 0.00 | 0.00 | 49 | 1010.7 |
| 20260504184139 | 70 | 198 | 2.6 | 7.0 | 0.00 | 0.00 | 0.00 | 49 | 1010.6 |
| 20260504183636 | 69 | 190 | 4.3 | 7.0 | 0.00 | 0.00 | 0.00 | 49 | 1010.9 |
| 20260504183134 | 69 | 220 | 3.5 | 5.2 | 0.00 | 0.00 | 0.00 | 50 | 1011.0 |
| 20260504182631 | 68 | 225 | 3.5 | 7.8 | 0.00 | 0.00 | 0.00 | 52 | 1011.0 |
| 20260504182129 | 68 | 203 | 1.7 | 6.1 | 0.00 | 0.00 | 0.00 | 53 | 1011.2 |
| 20260504181626 | 68 | 231 | 3.5 | 7.0 | 0.00 | 0.00 | 0.00 | 53 | 1011.1 |
| 20260504181123 | 67 | 238 | 8.7 | 9.6 | 0.00 | 0.00 | 0.00 | 53 | 1011.3 |
| 20260504180623 | 68 | 253 | 7.0 | 9.6 | 0.00 | 0.00 | 0.00 | 52 | 1011.2 |
| 20260504180121 | 69 | 238 | 1.7 | 5.2 | 0.00 | 0.00 | 0.00 | 53 | 1011.3 |
| 20260504175618 | 68 | 204 | 4.3 | 6.1 | 0.00 | 0.00 | 0.00 | 54 | 1011.3 |
| 20260504175114 | 66 | 154 | 2.6 | 7.8 | 0.00 | 0.00 | 0.00 | 56 | 1011.6 |
| 20260504174613 | 66 | 214 | 2.6 | 4.3 | 0.00 | 0.00 | 0.00 | 57 | 1011.5 |
| 20260504174109 | 66 | 181 | 0.9 | 4.3 | 0.00 | 0.00 | 0.00 | 57 | 1011.5 |
| 20260504173606 | 65 | 174 | 3.5 | 7.8 | 0.00 | 0.00 | 0.00 | 58 | 1011.3 |
| 20260504173104 | 66 | 247 | 2.6 | 7.8 | 0.00 | 0.00 | 0.00 | 57 | 1011.7 |
| 20260504172559 | 64 | 195 | 1.7 | 5.2 | 0.00 | 0.00 | 0.00 | 59 | 1011.5 |
| 20260504172056 | 63 | 201 | 0.9 | 5.2 | 0.00 | 0.00 | 0.00 | 60 | 1011.8 |
| 20260504171553 | 62 | 212 | 4.3 | 6.1 | 0.00 | 0.00 | 0.00 | 60 | 1011.8 |
| 20260504171050 | 63 | 240 | 4.3 | 5.2 | 0.00 | 0.00 | 0.00 | 60 | 1012.2 |
| 20260504170545 | 64 | 169 | 1.7 | 7.8 | 0.00 | 0.00 | 0.00 | 59 | 1011.9 |
| 20260504150930 | 61 | 253 | 6.1 | 9.6 | 0.00 | 0.00 | 0.00 | 55 | 1013.1 |
| 20260504150426 | 62 | 218 | 3.5 | 7.0 | 0.00 | 0.00 | 0.00 | 54 | 1013.0 |
| 20260504140853 | 60 | 251 | 3.5 | 7.0 | 0.00 | 0.00 | 0.00 | 53 | 1013.0 |
| 20260504140349 | 61 | 178 | 1.7 | 6.1 | 0.00 | 0.00 | 0.00 | 53 | 1013.0 |
| 20260504130818 | 58 | 186 | 1.7 | 6.1 | 0.00 | 0.00 | 0.00 | 53 | 1012.6 |
| 20260504130314 | 57 | 173 | 0.9 | 5.2 | 0.00 | 0.00 | 0.00 | 53 | 1012.6 |
| 20260504120237 | 51 | 198 | 2.6 | 2.6 | 0.00 | 0.00 | 0.00 | 61 | 1013.1 |
| 20260504110705 | 48 | 196 | 0.9 | 1.7 | 0.00 | 0.00 | 0.00 | 70 | 1013.4 |
| 20260504110201 | 48 | 193 | 0.9 | 1.7 | 0.00 | 0.00 | 0.00 | 73 | 1013.4 |
| 20260504100119 | 45 | 182 | 0.0 | 0.0 | 0.00 | 0.00 | 0.00 | 83 | 1013.7 |
| 20260504081512 | 47 | 188 | 0.9 | 1.7 | 0.00 | 0.00 | 0.00 | 71 | 1013.9 |
| 20260504081008 | 47 | 185 | 0.0 | 0.9 | 0.00 | 0.00 | 0.00 | 69 | 1014.0 |
| 20260504080504 | 47 | 186 | 0.9 | 1.7 | 0.00 | 0.00 | 0.00 | 69 | 1014.0 |
| 20260504050317 | 45 | 184 | 0.0 | 0.9 | 0.00 | 0.00 | 0.00 | 72 | 1014.2 |
| 20260504045809 | 45 | 184 | 0.0 | 0.0 | 0.00 | 0.00 | 0.00 | 70 | 1014.6 |
| 20260504045309 | 45 | 184 | 0.0 | 0.0 | 0.00 | 0.00 | 0.00 | 67 | 1014.6 |
| 20260504044806 | 45 | 184 | 0.0 | 0.0 | 0.00 | 0.00 | 0.00 | 66 | 1014.5 |
| 20260504044304 | 46 | 184 | 0.0 | 0.0 | 0.00 | 0.00 | 0.00 | 67 | 1014.3 |
| 20260504043801 | 46 | 184 | 0.0 | 0.0 | 0.00 | 0.00 | 0.00 | 64 | 1014.4 |
| 20260504043258 | 46 | 184 | 0.0 | 0.0 | 0.00 | 0.00 | 0.00 | 61 | 1014.6 |
| 20260504042755 | 46 | 184 | 0.0 | 0.0 | 0.00 | 0.00 | 0.00 | 63 | 1014.2 |
| 20260504042251 | 46 | 184 | 0.0 | 0.0 | 0.00 | 0.00 | 0.00 | 62 | 1014.6 |
| 20260504041748 | 46 | 184 | 0.0 | 0.0 | 0.00 | 0.00 | 0.00 | 65 | 1014.6 |
| 20260504041244 | 46 | 184 | 0.0 | 0.0 | 0.00 | 0.00 | 0.00 | 65 | 1014.4 |
| 20260504040740 | 46 | 184 | 0.0 | 0.0 | 0.00 | 0.00 | 0.00 | 63 | 1014.5 |
| 20260504040238 | 46 | 184 | 0.0 | 0.0 | 0.00 | 0.00 | 0.00 | 62 | 1014.4 |
| 20260504035733 | 46 | 184 | 0.0 | 0.0 | 0.00 | 0.00 | 0.00 | 65 | 1014.4 |
| 20260504035231 | 46 | 184 | 0.0 | 0.0 | 0.00 | 0.00 | 0.00 | 65 | 1014.7 |
| 20260504034729 | 46 | 184 | 0.0 | 0.0 | 0.00 | 0.00 | 0.00 | 64 | 1014.6 |
| 20260504034225 | 46 | 184 | 0.0 | 0.0 | 0.00 | 0.00 | 0.00 | 64 | 1014.5 |
| 20260504033723 | 46 | 184 | 0.0 | 0.0 | 0.00 | 0.00 | 0.00 | 61 | 1014.6 |
| 20260504033220 | 46 | 185 | 0.9 | 0.9 | 0.00 | 0.00 | 0.00 | 67 | 1014.5 |
| 20260504032717 | 46 | 184 | 0.0 | 0.0 | 0.00 | 0.00 | 0.00 | 63 | 1014.6 |
| 20260504032214 | 46 | 184 | 0.0 | 0.0 | 0.00 | 0.00 | 0.00 | 65 | 1014.5 |
| 20260504031711 | 46 | 184 | 0.0 | 0.0 | 0.00 | 0.00 | 0.00 | 64 | 1014.8 |
| 20260504031209 | 46 | 184 | 0.0 | 0.0 | 0.00 | 0.00 | 0.00 | 62 | 1014.8 |
| 20260504030704 | 46 | 184 | 0.0 | 0.0 | 0.00 | 0.00 | 0.00 | 61 | 1014.7 |
| 20260504030202 | 46 | 185 | 0.0 | 0.0 | 0.00 | 0.00 | 0.00 | 61 | 1014.5 |
| 20260504025658 | 46 | 185 | 0.0 | 0.9 | 0.00 | 0.00 | 0.00 | 60 | 1014.7 |
| 20260504025154 | 46 | 185 | 0.0 | 0.9 | 0.00 | 0.00 | 0.00 | 60 | 1014.5 |
| 20260504024652 | 46 | 185 | 0.9 | 0.9 | 0.00 | 0.00 | 0.00 | 63 | 1014.7 |
| 20260504024148 | 46 | 184 | 0.0 | 0.0 | 0.00 | 0.00 | 0.00 | 59 | 1014.9 |
| 20260504023645 | 46 | 184 | 0.0 | 0.0 | 0.00 | 0.00 | 0.00 | 64 | 1014.8 |
| 20260504023141 | 46 | 184 | 0.0 | 0.9 | 0.00 | 0.00 | 0.00 | 62 | 1014.8 |
| 20260504022637 | 46 | 184 | 0.0 | 0.9 | 0.00 | 0.00 | 0.00 | 60 | 1014.8 |
| 20260504022133 | 46 | 184 | 0.0 | 0.0 | 0.00 | 0.00 | 0.00 | 58 | 1014.7 |
| 20260504021632 | 46 | 184 | 0.0 | 0.0 | 0.00 | 0.00 | 0.00 | 64 | 1014.7 |
| 20260504021128 | 46 | 184 | 0.0 | 0.0 | 0.00 | 0.00 | 0.00 | 61 | 1014.8 |
| 20260504020625 | 47 | 184 | 0.0 | 0.0 | 0.00 | 0.00 | 0.00 | 60 | 1014.5 |
| 20260504020121 | 47 | 185 | 0.0 | 0.0 | 0.00 | 0.00 | 0.00 | 59 | 1014.7 |
| 20260504015618 | 47 | 184 | 0.0 | 0.9 | 0.00 | 0.00 | 0.00 | 61 | 1014.8 |
| 20260504015114 | 47 | 184 | 0.0 | 0.0 | 0.00 | 0.00 | 0.00 | 58 | 1014.7 |
| 20260504014610 | 47 | 185 | 0.0 | 0.0 | 0.00 | 0.00 | 0.00 | 62 | 1014.9 |
| 20260504014107 | 47 | 185 | 0.0 | 0.0 | 0.00 | 0.00 | 0.00 | 57 | 1014.8 |
| 20260504013605 | 47 | 185 | 0.0 | 0.0 | 0.00 | 0.00 | 0.00 | 57 | 1015.0 |
| 20260504013102 | 47 | 185 | 0.0 | 0.9 | 0.00 | 0.00 | 0.00 | 59 | 1014.6 |
| 20260504012559 | 47 | 184 | 0.0 | 0.9 | 0.00 | 0.00 | 0.00 | 61 | 1014.6 |
| 20260504012057 | 47 | 185 | 0.0 | 0.0 | 0.00 | 0.00 | 0.00 | 55 | 1014.6 |
| 20260504011553 | 46 | 185 | 0.0 | 0.0 | 0.00 | 0.00 | 0.00 | 61 | 1014.5 |
| 20260504011049 | 46 | 185 | 0.0 | 0.0 | 0.00 | 0.00 | 0.00 | 58 | 1014.7 |
| 20260504010545 | 46 | 185 | 0.0 | 0.0 | 0.00 | 0.00 | 0.00 | 58 | 1014.6 |
| 20260504010042 | 46 | 185 | 0.0 | 0.0 | 0.00 | 0.00 | 0.00 | 61 | 1014.5 |
| 20260504005538 | 46 | 185 | 0.0 | 0.0 | 0.00 | 0.00 | 0.00 | 58 | 1014.3 |
| 20260504005036 | 46 | 185 | 0.0 | 0.9 | 0.00 | 0.00 | 0.00 | 59 | 1014.3 |
| 20260504004533 | 47 | 185 | 0.0 | 0.0 | 0.00 | 0.00 | 0.00 | 58 | 1014.3 |
| 20260504004030 | 47 | 185 | 0.0 | 0.0 | 0.00 | 0.00 | 0.00 | 53 | 1014.4 |
| 20260504003526 | 48 | 185 | 0.9 | 0.9 | 0.00 | 0.00 | 0.00 | 56 | 1014.3 |
| 20260504003023 | 48 | 185 | 0.0 | 0.0 | 0.00 | 0.00 | 0.00 | 55 | 1014.2 |
| 20260504002520 | 48 | 185 | 0.0 | 0.9 | 0.00 | 0.00 | 0.00 | 56 | 1014.2 |
| 20260504002018 | 48 | 185 | 0.0 | 0.9 | 0.00 | 0.00 | 0.00 | 56 | 1014.3 |
| 20260504001515 | 48 | 186 | 0.9 | 0.9 | 0.00 | 0.00 | 0.00 | 52 | 1014.5 |
| 20260504001011 | 49 | 185 | 0.0 | 0.0 | 0.00 | 0.00 | 0.00 | 50 | 1014.4 |
| 20260504000509 | 50 | 185 | 0.0 | 0.0 | 0.00 | 0.00 | 0.00 | 50 | 1014.6 |
| 20260504000006 | 50 | 187 | 0.0 | 0.0 | 0.00 | 0.00 | 0.00 | 48 | 1014.3 |
| 20260503235504 | 50 | 184 | 0.9 | 0.9 | 0.00 | 0.00 | 0.00 | 49 | 1014.5 |
| 20260503235001 | 50 | 185 | 0.9 | 0.9 | 0.00 | 0.00 | 0.00 | 46 | 1014.3 |
| 20260503234458 | 50 | 208 | 1.7 | 2.6 | 0.00 | 0.00 | 0.00 | 46 | 1014.3 |
| 20260503233956 | 51 | 185 | 0.0 | 0.0 | 0.00 | 0.00 | 0.00 | 47 | 1014.5 |
| 20260503233452 | 51 | 185 | 0.0 | 1.7 | 0.00 | 0.00 | 0.00 | 45 | 1014.5 |
| 20260503232948 | 51 | 187 | 0.9 | 2.6 | 0.00 | 0.00 | 0.00 | 44 | 1014.4 |
| 20260503232446 | 51 | 183 | 1.7 | 4.3 | 0.00 | 0.00 | 0.00 | 44 | 1014.3 |